HK6REC-22 Weather Reports


Display with metric or nautical units.
time (UTC)temp
F
wind
direction
speed
MPH
gust
MPH
rain 1hr
in
rain 24hr
in
rain mn
in
humidity
%
barometer
mb
20260504140344 67 126 1.0 1.0 0.00 0.00 0.00 95 1016.0
20260504130342 67 97 2.0 2.0 0.00 0.00 0.00 96 1016.0
20260504110337 60 4 1.0 1.0 0.00 0.00 0.00 92 1016.0
20260504100335 68 10 1.0 1.0 0.00 0.00 0.00 92 1015.0
20260504080331 62 328 0.0 0.0 0.00 0.00 0.00 91 1015.0
20260504070329 63 307 0.0 0.0 0.01 0.00 0.00 92 1015.0
20260504050325 65 292 1.0 0.0 0.02 0.00 0.00 91 1016.0
20260504043324 65 292 1.0 0.0 0.00 0.00 0.00 93 1016.0
20260504040323 66 272 1.0 1.0 0.00 0.00 0.00 91 1017.0
20260504033322 66 272 1.0 1.0 0.00 0.00 0.00 92 1016.0
20260504030321 67 294 1.0 1.0 0.00 0.00 0.00 90 1016.0
20260504023320 67 294 1.0 1.0 0.00 0.00 0.00 92 1015.0
20260504020319 68 293 2.0 2.0 0.00 0.00 0.00 90 1015.0
20260504013317 68 293 2.0 2.0 0.00 0.00 0.00 92 1014.0
20260504010316 69 313 4.0 5.0 0.00 0.00 0.00 89 1014.0
20260504003315 70 313 4.0 5.0 0.00 0.00 0.00 92 1013.0
20260504000314 70 329 4.0 7.0 0.00 0.00 0.00 91 1012.0
20260503233313 70 326 4.0 7.0 0.00 0.00 0.00 90 1012.0
20260503230312 71 296 4.0 5.0 0.00 0.00 0.00 86 1011.0
20260503223311 71 296 4.0 5.0 0.00 0.00 0.00 88 1010.0
20260503220310 72 276 5.0 8.0 0.00 0.00 0.00 85 1011.0
20260503213309 72 276 5.0 8.0 0.00 0.00 0.00 84 1010.0
20260503210308 73 273 6.0 8.0 0.00 0.00 0.00 82 1010.0
20260503203307 84 273 6.0 8.0 0.00 0.00 0.00 77 1009.0
20260503200305 84 274 6.0 6.0 0.00 0.00 0.00 78 1010.0
20260503193305 86 274 6.0 6.0 0.00 0.00 0.00 74 1009.0
20260503190303 86 259 5.0 5.0 0.00 0.00 0.00 78 1011.0
20260503183303 84 259 5.0 5.0 0.00 0.00 0.00 74 1010.0
20260503180301 84 232 4.0 3.0 0.00 0.00 0.00 76 1011.0
20260503173300 83 251 4.0 3.0 0.00 0.00 0.00 76 1012.0
20260503170259 79 227 2.0 2.0 0.00 0.00 0.00 84 1014.0